Regional Weather Roundup
Issued by NWS Huntsville, AL

Home | Current Version | Previous Version | Text Only | Print | Product List | Glossary On
Versions: 1 2 3 4 5 6 7 8 9 10 11 12 13 14 15 16 17 18 19 20 21 22 23 24 25 26 27 28 29 30 31 32 33 34 35 36 37 38 39 40 41 42 43 44 45 46 47 48 49 50
000
ASUS44 KHUN 230724
RWRHUN

WEATHER ROUNDUP FOR THE TENNESSEE VALLEY
NATIONAL WEATHER SERVICE HUNTSVILLE AL
200 AM CDT WED JUL 23 2014

ALZ001>004-230800-
NORTHWEST ALABAMA

CITY           SKY/WX    TMP DP  RH WIND       PRES   REMARKS
SHOALS AIRPORT PTCLDY    73  72  94 CALM      30.08F FOG
SHOALS TVA RES   N/A     73 N/A N/A MISG        N/A
$$

ALZ005>007-016-230800-
NORTH CENTRAL ALABAMA

CITY           SKY/WX    TMP DP  RH WIND       PRES   REMARKS
DECATUR AP     CLOUDY    75  74  96 CALM      30.08F
HUNTSVILLE AP  CLOUDY    77  73  87 SE3       30.08F
HUN NWS/UAH      N/A     75  71  88 SW1         N/A
MERIDIANVILLE  PTCLDY    70  66  88 CALM      30.08F FOG
VINEMONT AP    PTSUNNY   73  72  98 CALM      30.11F
$$

ALZ008>010-230800-
NORTHEAST ALABAMA

CITY           SKY/WX    TMP DP  RH WIND       PRES   REMARKS
ALBERTVILLE    MOCLDY    70  70 100 CALM      30.09F FOG
CROSSVILLE       N/A     68 N/A N/A CALM        N/A
FORT PAYNE     FOG       68  64  88 CALM      30.09F VSB 1/4
SCOTTSBORO AP  FOG       72  72 100 E3        30.10S VSB 1/4
SCOTTSBORO HCN   N/A     72 N/A N/A MISG        N/A
VALLEY HEAD      N/A     68 N/A N/A MISG        N/A
$$

TNZ076-096-097-230800-
SOUTHEASTERN MIDDLE TENNESSEE

CITY           SKY/WX    TMP DP  RH WIND       PRES   REMARKS
FAYETTEVILLE   PTCLDY    70  70 100 CALM      30.09F
TULLAHOMA      PTCLDY    72  70  94 SE3       30.11F
WINCHESTER     PTCLDY    70  70 100 CALM      30.10F
$$

...SURROUNDING SITES...

CITY           SKY/WX    TMP DP  RH WIND       PRES   REMARKS
ATLANTA        PTCLDY    73  70  90 E7        30.09F
ANNISTON       CLEAR     72  70  93 E3        30.08F
BIRMINGHAM     PTCLDY    75  71  87 CALM      30.09F
CHATTANOOGA    CLEAR     73  70  90 CALM      30.10F
CORINTH        FAIR      72  70  94 CALM      30.06F FOG
DALTON         PTCLDY    68  68 100 CALM      30.09F
GADSDEN        CLEAR     72  70  94 CALM      30.08S
GOLDEN TRNGL   MOCLDY    73  70  88 NE3       30.05S
HALEYVILLE     FAIR      72  72 100 CALM      30.11F FOG
JACKSON TN     CLEAR     74  71  91 CALM      30.07S
LEWISBURG      FAIR      74  72  93 CALM      30.08F
MEMPHIS        PTCLDY    77  69  76 CALM      30.06F
NASHVILLE      PTCLDY    75  72  90 S3        30.07F
OXFORD MS      FAIR      73  72  94 CALM      30.07F
ROME           MOCLDY    71  70  96 CALM      30.08S FOG
SAVANNAH       CLEAR     72  72 100 CALM      30.07F
TUPELO         CLEAR     75  72  90 SE5       30.06S
TUSCALOOSA     PTCLDY    73  72  96 CALM      30.06F FOG
$$

...GULF COAST WEATHER...

CITY           SKY/WX    TMP DP  RH WIND       PRES   REMARKS
GULFPORT       CLEAR     74  69  85 N3        30.02F
PASCAGOULA     CLEAR     72  71  97 CALM      30.03S
MOBILE         CLEAR     71  70  96 SE3       30.04F
GULF SHORES    SUNNY     72  70  94 CALM      30.03S
PENSACOLA      CLEAR     74  74 100 CALM      30.03S FOG
DESTIN         PTCLDY    80  76  87 CALM      30.03S
PANAMA CITY    CLEAR     74  74 100 N2        30.04F
APPALACHICOLA  CLEAR     74  70  87 E3        30.03F
$$



USA.gov is the U.S. government's official web portal to all federal, state and local government web resources and services.